| time (UTC) | temp F | wind direction | speed knots | gust knots | rain 1hr in | rain 24hr in | rain mn in | humidity % | barometer mb |
| 20260505052004 | 55 | 252 | 0.0 | 1.7 | 0.00 | 0.00 | 0.00 | 84 | 1011.5 |
| 20260505051004 | 55 | 196 | 1.7 | 3.5 | 0.00 | 0.00 | 0.00 | 84 | 1011.5 |
| 20260505041004 | 55 | 210 | 0.0 | 2.6 | 0.00 | 0.00 | 0.00 | 82 | 1010.8 |
| 20260505040005 | 56 | 219 | 0.9 | 3.5 | 0.00 | 0.00 | 0.00 | 82 | 1010.8 |
| 20260505035003 | 56 | 219 | 0.9 | 3.5 | 0.00 | 0.00 | 0.00 | 82 | 1010.8 |
| 20260505034003 | 57 | 224 | 0.0 | 7.8 | 0.00 | 0.00 | 0.00 | 81 | 1010.5 |
| 20260505033004 | 57 | 5 | 0.9 | 3.5 | 0.00 | 0.00 | 0.00 | 80 | 1010.5 |
| 20260505032004 | 57 | 5 | 0.9 | 3.5 | 0.00 | 0.00 | 0.00 | 80 | 1010.5 |
| 20260505031004 | 58 | 216 | 0.9 | 6.1 | 0.00 | 0.00 | 0.00 | 78 | 1010.2 |
| 20260505030004 | 59 | 229 | 2.6 | 10.4 | 0.00 | 0.00 | 0.00 | 77 | 1010.2 |
| 20260505025004 | 59 | 229 | 2.6 | 10.4 | 0.00 | 0.00 | 0.00 | 77 | 1010.2 |
| 20260505024003 | 60 | 59 | 0.9 | 7.0 | 0.00 | 0.00 | 0.00 | 76 | 1009.8 |
| 20260505023004 | 61 | 215 | 3.5 | 9.6 | 0.00 | 0.00 | 0.00 | 74 | 1009.8 |
| 20260505022003 | 61 | 215 | 3.5 | 9.6 | 0.00 | 0.00 | 0.00 | 74 | 1009.8 |
| 20260505021004 | 63 | 232 | 2.6 | 8.7 | 0.00 | 0.00 | 0.00 | 72 | 1009.8 |
| 20260505020003 | 64 | 196 | 1.7 | 7.8 | 0.00 | 0.00 | 0.00 | 71 | 1009.5 |
| 20260505015004 | 64 | 196 | 1.7 | 7.8 | 0.00 | 0.00 | 0.00 | 71 | 1009.5 |
| 20260505014003 | 65 | 217 | 2.6 | 7.8 | 0.00 | 0.00 | 0.00 | 70 | 1009.5 |
| 20260505013004 | 66 | 219 | 4.3 | 6.1 | 0.00 | 0.00 | 0.00 | 69 | 1009.5 |
| 20260505012004 | 66 | 219 | 4.3 | 6.1 | 0.00 | 0.00 | 0.00 | 69 | 1009.5 |
| 20260505011004 | 68 | 233 | 4.3 | 8.7 | 0.00 | 0.00 | 0.00 | 66 | 1009.5 |
| 20260505010004 | 69 | 232 | 4.3 | 8.7 | 0.00 | 0.00 | 0.00 | 65 | 1009.5 |
| 20260505005004 | 69 | 232 | 4.3 | 8.7 | 0.00 | 0.00 | 0.00 | 65 | 1009.5 |
| 20260505004003 | 70 | 213 | 3.5 | 7.0 | 0.00 | 0.00 | 0.00 | 63 | 1009.5 |
| 20260505003004 | 70 | 234 | 4.3 | 8.7 | 0.00 | 0.00 | 0.00 | 64 | 1009.5 |
| 20260505002004 | 70 | 234 | 4.3 | 8.7 | 0.00 | 0.00 | 0.00 | 64 | 1009.5 |
| 20260505001004 | 72 | 194 | 0.9 | 12.2 | 0.00 | 0.00 | 0.00 | 61 | 1009.1 |
| 20260505000005 | 74 | 190 | 1.7 | 8.7 | 0.00 | 0.00 | 0.00 | 58 | 1009.5 |
| 20260504235003 | 74 | 190 | 1.7 | 8.7 | 0.00 | 0.00 | 0.00 | 58 | 1009.5 |
| 20260504234003 | 74 | 200 | 2.6 | 8.7 | 0.00 | 0.00 | 0.00 | 57 | 1009.1 |
| 20260504233004 | 76 | 226 | 2.6 | 8.7 | 0.00 | 0.00 | 0.00 | 58 | 1009.1 |
| 20260504232003 | 76 | 226 | 2.6 | 8.7 | 0.00 | 0.00 | 0.00 | 58 | 1009.1 |
| 20260504231004 | 75 | 252 | 2.6 | 12.2 | 0.00 | 0.00 | 0.00 | 58 | 1009.1 |
| 20260504230005 | 75 | 216 | 4.3 | 12.2 | 0.00 | 0.00 | 0.00 | 58 | 1009.5 |
| 20260504225004 | 75 | 216 | 4.3 | 12.2 | 0.00 | 0.00 | 0.00 | 58 | 1009.5 |
| 20260504224003 | 75 | 202 | 0.9 | 12.2 | 0.00 | 0.00 | 0.00 | 59 | 1009.5 |
| 20260504223004 | 74 | 182 | 3.5 | 10.4 | 0.00 | 0.00 | 0.00 | 60 | 1009.5 |
| 20260504222003 | 74 | 182 | 3.5 | 10.4 | 0.00 | 0.00 | 0.00 | 60 | 1009.5 |
| 20260504221003 | 75 | 237 | 5.2 | 9.6 | 0.00 | 0.00 | 0.00 | 58 | 1009.8 |
| 20260504220004 | 74 | 242 | 2.6 | 7.0 | 0.00 | 0.00 | 0.00 | 58 | 1009.8 |
| 20260504215003 | 74 | 242 | 2.6 | 7.0 | 0.00 | 0.00 | 0.00 | 58 | 1009.8 |
| 20260504214004 | 74 | 221 | 2.6 | 12.2 | 0.00 | 0.00 | 0.00 | 60 | 1010.2 |
| 20260504213004 | 72 | 213 | 6.1 | 9.6 | 0.00 | 0.00 | 0.00 | 61 | 1010.2 |
| 20260504212004 | 72 | 213 | 6.1 | 9.6 | 0.00 | 0.00 | 0.00 | 61 | 1010.2 |
| 20260504211003 | 73 | 211 | 6.1 | 8.7 | 0.00 | 0.00 | 0.00 | 61 | 1010.2 |
| 20260504210004 | 73 | 215 | 1.7 | 7.8 | 0.00 | 0.00 | 0.00 | 65 | 1010.5 |
| 20260504205004 | 73 | 215 | 1.7 | 7.8 | 0.00 | 0.00 | 0.00 | 65 | 1010.5 |
| 20260504204003 | 71 | 233 | 5.2 | 6.1 | 0.00 | 0.00 | 0.00 | 64 | 1010.5 |
| 20260504203004 | 71 | 224 | 6.1 | 7.8 | 0.00 | 0.00 | 0.00 | 64 | 1010.8 |
| 20260504202003 | 71 | 224 | 6.1 | 7.8 | 0.00 | 0.00 | 0.00 | 64 | 1010.8 |
| 20260504201003 | 71 | 220 | 2.6 | 6.1 | 0.00 | 0.00 | 0.00 | 64 | 1010.8 |
| 20260504200003 | 69 | 21 | 1.7 | 7.8 | 0.00 | 0.00 | 0.00 | 71 | 1010.8 |
| 20260504195003 | 69 | 21 | 1.7 | 7.8 | 0.00 | 0.00 | 0.00 | 71 | 1010.8 |
| 20260504175003 | 63 | 223 | 0.9 | 7.0 | 0.00 | 0.00 | 0.00 | 73 | 1011.5 |
| 20260504174003 | 63 | 186 | 2.6 | 5.2 | 0.00 | 0.00 | 0.00 | 75 | 1011.5 |
| 20260504173004 | 61 | 217 | 6.1 | 8.7 | 0.00 | 0.00 | 0.00 | 77 | 1011.9 |
| 20260504172003 | 61 | 217 | 6.1 | 8.7 | 0.00 | 0.00 | 0.00 | 77 | 1011.9 |
| 20260504171004 | 60 | 194 | 3.5 | 9.6 | 0.00 | 0.00 | 0.00 | 79 | 1011.9 |
| 20260504151004 | 56 | 236 | 2.6 | 3.5 | 0.00 | 0.00 | 0.00 | 85 | 1011.2 |
| 20260504141003 | 53 | 53 | 0.9 | 1.7 | 0.00 | 0.00 | 0.00 | 89 | 1010.5 |
| 20260504082004 | 61 | 44 | 0.0 | 0.0 | 0.00 | 0.00 | 0.00 | 73 | 1007.5 |
| 20260504081003 | 62 | 44 | 0.0 | 0.0 | 0.00 | 0.00 | 0.00 | 71 | 1007.5 |